Terminal Aerodrome Forecast
Issued by NWS Flagstaff, AZ

Home | Current Version | Previous Version | Text Only | Print | Product List | Glossary On
Versions: 1 2 3 4 5 6 7 8 9 10 11 12 13 14 15 16 17 18 19 20 21 22 23 24 25 26 27 28 29 30 31
000
FTUS45 KFGZ 200500 AAC
TAFFLG
TAF AMD
KFLG 200506Z 2005/2024 00000KT P6SM SCT002 BKN200
      TEMPO 2005/2007 1/4SM FZFG BKN002
     FM202000 22007KT P6SM SCT200=

USA.gov is the U.S. government's official web portal to all federal, state and local government web resources and services.